When you browse on this site, cookies collect data to enhance your experience and personalize the content and advertising you see.
Visit our Privacy Policy to learn more. By continuing to use the site, you agree to this use of cookies and data.
  • In Hungary
  • List of Countries
  • For 7 days
  • Water Temperature
  • Weather Map
  • News
  • Weather Widgets
  • user-avatar
    Login

    Hourly Weather Matanzas

    Today, 9 December, Monday

    Time Temperature Precipitation Wind Pressure Humidity
    00:00 +19°C° 0 mm 3 mps 758 mmHg 91%
    01:00 +19°C° 0 mm 3 mps 758 mmHg 92%
    02:00 +19°C° 0 mm 2 mps 758 mmHg 92%
    03:00 +19°C° 0 mm 2 mps 757 mmHg 91%
    04:00 +19°C° 0 mm 2 mps 757 mmHg 91%
    05:00 +19°C° 0 mm 2 mps 758 mmHg 92%
    06:00 +19°C° 0 mm 2 mps 758 mmHg 93%
    07:00 +19°C° 0 mm 2 mps 758 mmHg 93%
    08:00 +21°C° 0 mm 3 mps 758 mmHg 87%
    09:00 +25°C° 0 mm 4 mps 758 mmHg 81%
    10:00 +27°C° 0 mm 4 mps 759 mmHg 74%
    11:00 +28°C° 0.1 mm 4 mps 758 mmHg 72%
    12:00 +29°C° 0.1 mm 4 mps 758 mmHg 70%
    13:00 +29°C° 0.1 mm 4 mps 757 mmHg 67%
    14:00 +29°C° 0.1 mm 4 mps 757 mmHg 66%
    15:00 +29°C° 0.1 mm 4 mps 756 mmHg 66%
    16:00 +29°C° 0.1 mm 4 mps 756 mmHg 65%
    17:00 +28°C° 0 mm 4 mps 756 mmHg 73%
    18:00 +26°C° 0 mm 4 mps 757 mmHg 82%
    19:00 +24°C° 0 mm 3 mps 757 mmHg 90%
    20:00 +24°C° 0 mm 3 mps 757 mmHg 91%
    21:00 +22°C° 0 mm 3 mps 758 mmHg 92%
    22:00 +22°C° 0 mm 3 mps 758 mmHg 93%
    23:00 +22°C° 0 mm 3 mps 758 mmHg 93%

    Tomorrow, 10 December, Tuesday

    Time Temperature Precipitation Wind Pressure Humidity
    00:00 +22°C° 0 mm 3 mps 757 mmHg 94%
    01:00 +22°C° 0 mm 3 mps 757 mmHg 94%
    02:00 +22°C° 0 mm 3 mps 757 mmHg 95%
    03:00 +22°C° 0 mm 3 mps 757 mmHg 96%
    04:00 +22°C° 0 mm 4 mps 757 mmHg 97%
    05:00 +22°C° 0 mm 4 mps 757 mmHg 97%
    06:00 +22°C° 0 mm 4 mps 757 mmHg 96%
    07:00 +22°C° 0 mm 4 mps 758 mmHg 96%
    08:00 +23°C° 0 mm 4 mps 758 mmHg 90%
    09:00 +26°C° 0 mm 5 mps 758 mmHg 83%
    10:00 +28°C° 0 mm 5 mps 759 mmHg 77%
    11:00 +29°C° 0 mm 5 mps 758 mmHg 72%
    12:00 +30°C° 0 mm 5 mps 758 mmHg 67%
    13:00 +32°C° 0 mm 4 mps 757 mmHg 62%
    14:00 +32°C° 0 mm 4 mps 757 mmHg 63%
    15:00 +32°C° 0 mm 4 mps 756 mmHg 64%
    16:00 +32°C° 0 mm 4 mps 756 mmHg 64%
    17:00 +29°C° 0.1 mm 4 mps 756 mmHg 72%
    18:00 +28°C° 0.1 mm 4 mps 757 mmHg 79%
    19:00 +26°C° 0.1 mm 3 mps 757 mmHg 86%
    20:00 +25°C° 0.1 mm 3 mps 758 mmHg 88%
    21:00 +25°C° 0.1 mm 2 mps 758 mmHg 89%
    22:00 +24°C° 0.1 mm 2 mps 758 mmHg 91%
    23:00 +24°C° 0 mm 2 mps 758 mmHg 92%

    Day after tomorrow, 11 December, Wednesday

    Time Temperature Precipitation Wind Pressure Humidity
    00:00 +24°C° 0 mm 2 mps 758 mmHg 93%
    01:00 +24°C° 0 mm 2 mps 758 mmHg 94%
    02:00 +24°C° 0 mm 2 mps 758 mmHg 95%
    03:00 +23°C° 0 mm 2 mps 757 mmHg 96%
    04:00 +23°C° 0 mm 2 mps 757 mmHg 96%
    05:00 +23°C° 0 mm 2 mps 758 mmHg 96%
    06:00 +22°C° 0 mm 3 mps 758 mmHg 96%
    07:00 +22°C° 0 mm 3 mps 759 mmHg 97%
    08:00 +25°C° 0 mm 3 mps 759 mmHg 90%
    09:00 +27°C° 0 mm 3 mps 759 mmHg 83%
    10:00 +29°C° 0 mm 4 mps 760 mmHg 76%
    11:00 +30°C° 0 mm 3 mps 759 mmHg 70%
    12:00 +31°C° 0 mm 3 mps 759 mmHg 64%
    13:00 +33°C° 0 mm 3 mps 759 mmHg 58%
    14:00 +31°C° 0.2 mm 3 mps 758 mmHg 63%
    15:00 +30°C° 0.2 mm 4 mps 758 mmHg 69%
    16:00 +29°C° 0.2 mm 5 mps 757 mmHg 74%
    17:00 +28°C° 0.3 mm 4 mps 758 mmHg 80%
    18:00 +26°C° 0.3 mm 4 mps 758 mmHg 85%
    19:00 +25°C° 0.3 mm 4 mps 758 mmHg 91%
    20:00 +25°C° 0.1 mm 4 mps 759 mmHg 92%
    21:00 +25°C° 0.1 mm 4 mps 759 mmHg 94%
    22:00 +23°C° 0.1 mm 4 mps 759 mmHg 95%
    23:00 +23°C° 0.1 mm 4 mps 759 mmHg 96%

    12 December, Thursday

    Time Temperature Precipitation Wind Pressure Humidity
    00:00 +23°C° 0.1 mm 4 mps 759 mmHg 96%
    01:00 +23°C° 0.1 mm 4 mps 758 mmHg 96%
    02:00 +23°C° 0 mm 4 mps 758 mmHg 96%
    03:00 +23°C° 0 mm 4 mps 758 mmHg 96%
    04:00 +22°C° 0 mm 4 mps 758 mmHg 96%
    05:00 +22°C° 0 mm 4 mps 758 mmHg 96%
    06:00 +22°C° 0 mm 4 mps 758 mmHg 95%
    07:00 +22°C° 0 mm 4 mps 759 mmHg 95%
    08:00 +25°C° 0 mm 5 mps 759 mmHg 88%
    09:00 +26°C° 0 mm 5 mps 759 mmHg 81%
    10:00 +28°C° 0 mm 6 mps 760 mmHg 74%
    11:00 +29°C° 0 mm 6 mps 759 mmHg 71%
    12:00 +29°C° 0 mm 6 mps 759 mmHg 68%
    13:00 +30°C° 0 mm 6 mps 758 mmHg 65%
    14:00 +29°C° 0 mm 6 mps 758 mmHg 67%
    15:00 +29°C° 0 mm 6 mps 757 mmHg 68%
    16:00 +28°C° 0 mm 6 mps 757 mmHg 69%
    17:00 +27°C° 0 mm 6 mps 757 mmHg 75%
    18:00 +26°C° 0 mm 6 mps 757 mmHg 80%
    19:00 +23°C° 0 mm 5 mps 757 mmHg 85%
    20:00 +23°C° 0 mm 5 mps 758 mmHg 87%
    21:00 +23°C° 0 mm 5 mps 758 mmHg 88%
    22:00 +22°C° 0 mm 5 mps 758 mmHg 89%
    23:00 +22°C° 0 mm 4 mps 758 mmHg 90%

    13 December, Friday

    Time Temperature Precipitation Wind Pressure Humidity
    00:00 +22°C° 0 mm 4 mps 757 mmHg 92%
    01:00 +21°C° 0 mm 4 mps 757 mmHg 93%
    02:00 +21°C° 0 mm 4 mps 757 mmHg 93%
    03:00 +21°C° 0 mm 4 mps 756 mmHg 94%
    04:00 +21°C° 0 mm 4 mps 756 mmHg 94%
    05:00 +21°C° 0 mm 4 mps 756 mmHg 94%
    06:00 +21°C° 0 mm 4 mps 756 mmHg 94%
    07:00 +21°C° 0 mm 4 mps 756 mmHg 95%
    08:00 +23°C° 0 mm 4 mps 757 mmHg 87%
    09:00 +26°C° 0 mm 5 mps 757 mmHg 80%
    10:00 +28°C° 0 mm 5 mps 757 mmHg 73%
    11:00 +28°C° 0 mm 5 mps 757 mmHg 70%
    12:00 +29°C° 0 mm 4 mps 756 mmHg 66%
    13:00 +30°C° 0 mm 4 mps 755 mmHg 63%
    14:00 +30°C° 0.2 mm 4 mps 755 mmHg 64%
    15:00 +30°C° 0.2 mm 4 mps 754 mmHg 65%
    16:00 +29°C° 0.2 mm 4 mps 754 mmHg 66%
    17:00 +28°C° 0.3 mm 4 mps 754 mmHg 74%
    18:00 +26°C° 0.3 mm 4 mps 754 mmHg 82%
    19:00 +23°C° 0.3 mm 4 mps 754 mmHg 90%
    20:00 +24°C° 0.2 mm 3 mps 754 mmHg 91%
    21:00 +22°C° 0.2 mm 3 mps 754 mmHg 92%
    22:00 +22°C° 0.2 mm 3 mps 755 mmHg 93%
    23:00 +23°C° 0 mm 2 mps 754 mmHg 93%

    14 December, Saturday

    Time Temperature Precipitation Wind Pressure Humidity
    00:00 +23°C° 0 mm 2 mps 754 mmHg 93%
    01:00 +23°C° 0 mm 1 mps 754 mmHg 93%
    02:00 +23°C° 0 mm 1 mps 753 mmHg 93%
    03:00 +22°C° 0 mm 1 mps 753 mmHg 93%
    04:00 +22°C° 0 mm 1 mps 753 mmHg 93%
    05:00 +22°C° 0 mm 1 mps 753 mmHg 93%
    06:00 +22°C° 0 mm 1 mps 753 mmHg 93%
    07:00 +22°C° 0 mm 1 mps 753 mmHg 93%
    08:00 +24°C° 0 mm 2 mps 754 mmHg 88%
    09:00 +26°C° 0 mm 2 mps 754 mmHg 82%
    10:00 +27°C° 0 mm 3 mps 754 mmHg 77%
    11:00 +28°C° 0 mm 4 mps 754 mmHg 72%
    12:00 +29°C° 0 mm 4 mps 753 mmHg 68%
    13:00 +30°C° 0 mm 5 mps 753 mmHg 63%
    14:00 +30°C° 0.1 mm 5 mps 752 mmHg 64%
    15:00 +30°C° 0.1 mm 5 mps 752 mmHg 65%
    16:00 +29°C° 0.1 mm 5 mps 752 mmHg 66%
    17:00 +28°C° 0.3 mm 5 mps 752 mmHg 73%
    18:00 +26°C° 0.3 mm 4 mps 753 mmHg 80%
    19:00 +23°C° 0.3 mm 4 mps 753 mmHg 87%
    20:00 +23°C° 0.2 mm 4 mps 754 mmHg 89%
    21:00 +24°C° 0.2 mm 3 mps 754 mmHg 90%
    22:00 +22°C° 0.2 mm 3 mps 755 mmHg 92%
    23:00 +22°C° 0 mm 3 mps 755 mmHg 92%
    Show more